�������l�o���
Date,Time,MP-1(��Sv/h),MP-2(��Sv/h),MP-3(��Sv/h),MP-4(��Sv/h),MP-5(��Sv/h),MP-6(��Sv/h),MP-7(��Sv/h),MP-8(��Sv/h),����,����(m/s),���J
2018/04/24,00:00,0.864,1.445,0.898,1.662,1.156,0.480,0.849,0.814,�k�k��,5.8,�L
2018/04/24,00:10,0.864,1.447,0.897,1.661,1.154,0.479,0.850,0.815,�k�k��,6.2,��
2018/04/24,00:20,0.866,1.445,0.898,1.663,1.156,0.481,0.850,0.814,�k�k��,4.8,��
2018/04/24,00:30,0.865,1.447,0.895,1.661,1.156,0.481,0.848,0.814,�k��,6.3,��
2018/04/24,00:40,0.863,1.447,0.897,1.661,1.155,0.480,0.848,0.816,�k��,6.0,��
2018/04/24,00:50,0.863,1.447,0.897,1.664,1.155,0.480,0.849,0.817,�k�k��,5.7,��
2018/04/24,01:00,0.864,1.446,0.896,1.663,1.155,0.478,0.849,0.815,�k��,5.8,��
2018/04/24,01:10,0.866,1.444,0.896,1.660,1.156,0.482,0.850,0.816,�k�k��,5.8,��
2018/04/24,01:20,0.864,1.447,0.897,1.664,1.155,0.480,0.849,0.815,�k�k��,5.4,��
2018/04/24,01:30,0.866,1.445,0.896,1.664,1.156,0.481,0.849,0.816,�k�k��,5.7,��
2018/04/24,01:40,0.865,1.446,0.898,1.664,1.156,0.482,0.850,0.815,�k�k��,5.3,��
2018/04/24,01:50,0.865,1.446,0.897,1.663,1.157,0.480,0.851,0.815,�k�k��,5.7,��
2018/04/24,02:00,0.864,1.444,0.898,1.660,1.152,0.479,0.850,0.814,�k��,4.8,��
2018/04/24,02:10,0.866,1.447,0.897,1.662,1.156,0.482,0.850,0.815,�k��,5.9,��
2018/04/24,02:20,0.865,1.446,0.897,1.663,1.158,0.480,0.848,0.815,�k�k��,6.8,�L
2018/04/24,02:30,0.864,1.445,0.898,1.665,1.155,0.480,0.849,0.816,�k��,6.5,�L
2018/04/24,02:40,0.865,1.446,0.898,1.664,1.154,0.481,0.848,0.816,�k��,6.0,�L
2018/04/24,02:50,0.864,1.447,0.897,1.665,1.156,0.480,0.849,0.816,�k�k��,4.7,�L
2018/04/24,03:00,0.865,1.446,0.898,1.663,1.153,0.481,0.851,0.814,�k�k��,5.4,�L
2018/04/24,03:10,0.863,1.446,0.897,1.665,1.155,0.481,0.850,0.815,�k�k��,5.6,�L
2018/04/24,03:20,0.866,1.446,0.898,1.665,1.155,0.480,0.850,0.815,�k�k��,5.5,�L
2018/04/24,03:30,0.864,1.445,0.899,1.662,1.157,0.482,0.850,0.816,�k�k��,6.0,�L
2018/04/24,03:40,0.864,1.445,0.898,1.664,1.158,0.481,0.849,0.815,�k�k��,4.8,�L
2018/04/24,03:50,0.866,1.443,0.898,1.665,1.155,0.482,0.851,0.815,�k�k��,4.5,�L
2018/04/24,04:00,0.865,1.445,0.898,1.664,1.158,0.482,0.850,0.815,�k�k��,5.3,�L
2018/04/24,04:10,0.864,1.445,0.899,1.660,1.155,0.480,0.850,0.815,�k�k��,4.9,�L
2018/04/24,04:20,0.865,1.445,0.897,1.662,1.155,0.481,0.850,0.815,�k�k��,4.3,�L
2018/04/24,04:30,0.864,1.445,0.897,1.660,1.154,0.481,0.851,0.816,�k�k��,4.5,�L
2018/04/24,04:40,0.865,1.442,0.897,1.659,1.156,0.481,0.849,0.815,�k�k��,4.8,�L
2018/04/24,04:50,0.863,1.442,0.897,1.662,1.155,0.481,0.850,0.816,�k�k��,4.4,�L
2018/04/24,05:00,0.865,1.441,0.898,1.662,1.154,0.482,0.851,0.812,�k�k��,4.0,�L
2018/04/24,05:10,0.863,1.440,0.897,1.664,1.154,0.482,0.850,0.816,�k�k��,3.3,�L
2018/04/24,05:20,0.862,1.442,0.896,1.660,1.155,0.482,0.851,0.815,�k�k��,3.5,�L
2018/04/24,05:30,0.861,1.437,0.896,1.661,1.153,0.481,0.850,0.815,�k��,3.0,�L
2018/04/24,05:40,0.859,1.439,0.896,1.659,1.152,0.481,0.852,0.814,�k��,2.5,�L
2018/04/24,05:50,0.864,1.438,0.895,1.661,1.152,0.480,0.850,0.815,�k��,1.4,�L
2018/04/24,06:00,0.861,1.437,0.895,1.658,1.151,0.480,0.850,0.815,�k��,1.2,�L
2018/04/24,06:10,0.862,1.437,0.895,1.661,1.152,0.481,0.850,0.815,�k��,1.1,�L
2018/04/24,06:20,0.860,1.442,0.896,1.658,1.150,0.481,0.849,0.815,�k��,1.2,�L
2018/04/24,06:30,0.861,1.437,0.894,1.661,1.152,0.480,0.851,0.813,���k��,1.2,�L
2018/04/24,06:40,0.861,1.435,0.896,1.660,1.149,0.480,0.852,0.814,��,1.2,�L
2018/04/24,06:50,0.861,1.437,0.894,1.660,1.149,0.481,0.851,0.815,��,0.9,�L
2018/04/24,07:00,0.861,1.440,0.896,1.660,1.152,0.481,0.850,0.814,-,CALM,�L
2018/04/24,07:10,0.864,1.437,0.894,1.657,1.151,0.480,0.849,0.815,��쓌,1.1,�L
2018/04/24,07:20,0.863,1.436,0.894,1.657,1.151,0.482,0.849,0.814,-,CALM,�L
2018/04/24,07:30,0.862,1.437,0.896,1.658,1.152,0.481,0.850,0.815,��쓌,0.9,�L
2018/04/24,07:40,0.862,1.438,0.892,1.658,1.151,0.481,0.850,0.814,���쓌,0.6,�L
2018/04/24,07:50,0.860,1.436,0.896,1.656,1.150,0.481,0.849,0.815,-,CALM,�L
2018/04/24,08:00,0.861,1.437,0.894,1.657,1.151,0.479,0.850,0.814,-,CALM,�L
2018/04/24,08:10,0.863,1.437,0.895,1.660,1.154,0.481,0.848,0.816,�쓌,0.9,�L
2018/04/24,08:20,0.863,1.438,0.895,1.660,1.150,0.481,0.849,0.815,���쓌,1.2,�L
2018/04/24,08:30,0.861,1.437,0.895,1.658,1.149,0.480,0.849,0.815,��,0.8,�L
2018/04/24,08:40,0.863,1.439,0.895,1.662,1.152,0.480,0.849,0.814,���k��,0.8,�L
2018/04/24,08:50,0.863,1.439,0.897,1.660,1.150,0.481,0.851,0.813,��,1.5,�L
2018/04/24,09:00,0.863,1.434,0.895,1.659,1.147,0.480,0.849,0.813,���k��,1.7,�L
2018/04/24,09:10,0.861,1.437,0.896,1.660,1.149,0.479,0.850,0.813,���k��,1.2,�L
2018/04/24,09:20,0.863,1.438,0.897,1.660,1.149,0.480,0.850,0.811,��,1.2,�L
2018/04/24,09:30,0.862,1.440,0.896,1.659,1.151,0.479,0.850,0.812,��,1.5,�L
2018/04/24,09:40,0.863,1.438,0.898,1.661,1.149,0.480,0.847,0.811,���k��,2.0,�L
2018/04/24,09:50,0.864,1.440,0.895,1.660,1.149,0.480,0.849,0.813,���k��,1.7,�L
2018/04/24,10:00,0.864,1.439,0.893,1.658,1.151,0.480,0.850,0.816,���k��,2.0,�L
2018/04/24,10:10,0.864,1.442,0.895,1.662,1.149,0.481,0.850,0.813,���k��,1.7,�L
2018/04/24,10:20,0.864,1.437,0.897,1.661,1.151,0.481,0.848,0.815,��,1.7,��
2018/04/24,10:30,0.864,1.435,0.894,1.661,1.150,0.480,0.850,0.814,��,2.2,��
2018/04/24,10:40,0.861,1.439,0.894,1.661,1.151,0.481,0.849,0.816,���k��,1.2,��
2018/04/24,10:50,0.864,1.438,0.893,1.659,1.152,0.480,0.849,0.814,���k��,1.2,��
2018/04/24,11:00,0.864,1.435,0.896,1.660,1.149,0.480,0.850,0.815,��,1.7,��
2018/04/24,11:10,0.865,1.434,0.896,1.661,1.151,0.480,0.849,0.814,���쓌,1.7,��
2018/04/24,11:20,0.862,1.439,0.896,1.661,1.149,0.480,0.851,0.816,��,1.9,��
2018/04/24,11:30,0.865,1.440,0.896,1.661,1.150,0.482,0.851,0.816,��,1.9,��
2018/04/24,11:40,0.865,1.443,0.898,1.660,1.151,0.480,0.849,0.814,���쓌,1.5,��
2018/04/24,11:50,0.864,1.439,0.896,1.662,1.151,0.479,0.849,0.815,�쓌,2.0,��
2018/04/24,12:00,0.865,1.442,0.896,1.661,1.150,0.481,0.848,0.815,�쓌,2.3,��
2018/04/24,12:10,0.863,1.441,0.897,1.658,1.150,0.479,0.848,0.813,�쓌,1.5,��
2018/04/24,12:20,0.865,1.442,0.898,1.661,1.152,0.480,0.849,0.813,���쓌,2.6,�L
2018/04/24,12:30,0.863,1.442,0.895,1.662,1.153,0.482,0.850,0.816,���쓌,2.0,��
2018/04/24,12:40,0.865,1.438,0.899,1.661,1.152,0.480,0.849,0.812,�쓌,2.3,��
2018/04/24,12:50,0.865,1.441,0.897,1.659,1.153,0.480,0.852,0.814,�쓌,1.5,�L
2018/04/24,13:00,0.865,1.441,0.897,1.662,1.153,0.481,0.850,0.812,���쓌,1.7,��
2018/04/24,13:10,0.866,1.442,0.896,1.662,1.151,0.481,0.850,0.812,�쓌,2.3,��
2018/04/24,13:20,0.865,1.443,0.898,1.662,1.154,0.480,0.850,0.812,�쓌,1.9,��
2018/04/24,13:30,0.864,1.440,0.899,1.661,1.151,0.481,0.847,0.814,�쓌,2.2,��
2018/04/24,13:40,0.865,1.442,0.897,1.664,1.153,0.480,0.850,0.812,�쓌,1.7,�L
2018/04/24,13:50,0.866,1.441,0.897,1.660,1.153,0.482,0.851,0.814,�쓌,1.7,�L
2018/04/24,14:00,0.866,1.442,0.898,1.662,1.154,0.481,0.851,0.812,���쓌,1.5,�L
2018/04/24,14:10,0.866,1.442,0.898,1.661,1.154,0.482,0.851,0.814,���쓌,1.4,��
2018/04/24,14:20,0.865,1.446,0.898,1.661,1.153,0.481,0.850,0.814,��,0.9,�L
2018/04/24,14:30,0.866,1.445,0.899,1.662,1.152,0.481,0.850,0.815,�k��,1.2,�L
2018/04/24,14:40,0.865,1.439,0.897,1.663,1.154,0.481,0.850,0.815,�k�k��,1.1,�L
2018/04/24,14:50,0.866,1.441,0.896,1.661,1.152,0.481,0.851,0.814,���k��,0.9,�L
2018/04/24,15:00,0.865,1.442,0.898,1.664,1.155,0.482,0.850,0.814,�k��,1.2,�L
2018/04/24,15:10,0.865,1.444,0.899,1.663,1.152,0.482,0.852,0.813,���쓌,1.2,�L
2018/04/24,15:20,0.864,1.441,0.898,1.662,1.150,0.483,0.850,0.814,���쓌,1.2,�L
2018/04/24,15:30,0.865,1.445,0.897,1.662,1.152,0.481,0.851,0.813,��,0.8,�L
2018/04/24,15:40,0.865,1.440,0.896,1.662,1.154,0.482,0.851,0.817,�k��,0.8,�L
2018/04/24,15:50,0.866,1.442,0.896,1.661,1.155,0.483,0.852,0.816,�k,0.8,�L
2018/04/24,16:00,0.862,1.441,0.899,1.663,1.154,0.482,0.852,0.815,�k,1.2,�L
2018/04/24,16:10,0.866,1.441,0.895,1.660,1.150,0.482,0.850,0.816,�k,1.4,�L
2018/04/24,16:20,0.864,1.441,0.897,1.661,1.152,0.483,0.852,0.814,�k,1.7,�L
2018/04/24,16:30,0.866,1.442,0.897,1.661,1.151,0.483,0.852,0.813,�k,2.5,�L
2018/04/24,16:40,0.863,1.438,0.895,1.659,1.150,0.482,0.851,0.816,�k,2.6,�L
2018/04/24,16:50,0.861,1.434,0.895,1.657,1.149,0.482,0.850,0.814,�k�k��,2.0,�L
2018/04/24,17:00,0.861,1.435,0.895,1.659,1.147,0.482,0.849,0.813,�k�k��,2.3,�L
2018/04/24,17:10,0.859,1.432,0.894,1.655,1.145,0.482,0.848,0.812,�k�k��,2.9,�L
2018/04/24,17:20,0.859,1.429,0.892,1.655,1.147,0.481,0.848,0.813,�k�k��,2.6,�L
2018/04/24,17:30,0.857,1.429,0.894,1.653,1.144,0.483,0.847,0.811,�k�k��,2.8,�L
2018/04/24,17:40,0.860,1.428,0.891,1.653,1.144,0.481,0.846,0.812,�k�k��,2.2,�L
2018/04/24,17:50,0.858,1.428,0.894,1.652,1.139,0.483,0.847,0.812,�k,2.0,�L
2018/04/24,18:00,0.855,1.425,0.891,1.650,1.140,0.481,0.847,0.810,�k�k��,2.6,�L
2018/04/24,18:10,0.856,1.421,0.890,1.648,1.138,0.482,0.845,0.810,�k�k��,2.6,�L
2018/04/24,18:20,0.853,1.419,0.888,1.641,1.135,0.480,0.843,0.809,-,CALM,�L
2018/04/24,18:30,0.851,1.413,0.885,1.634,1.131,0.480,0.843,0.807,�k�k��,3.8,�L
2018/04/24,18:40,0.850,1.412,0.884,1.631,1.126,0.479,0.841,0.806,�k�k��,3.1,�L
2018/04/24,18:50,0.849,1.409,0.886,1.627,1.123,0.479,0.841,0.806,�k�k��,2.6,�L
2018/04/24,19:00,0.849,1.402,0.880,1.624,1.124,0.481,0.841,0.804,�k�k��,3.3,�L
2018/04/24,19:10,0.843,1.405,0.882,1.624,1.123,0.478,0.841,0.806,�k�k��,3.6,�L
2018/04/24,19:20,0.845,1.400,0.881,1.621,1.121,0.480,0.839,0.806,�k�k��,3.5,�L
2018/04/24,19:30,0.844,1.404,0.881,1.618,1.117,0.477,0.839,0.803,�k�k��,3.3,�L
2018/04/24,19:40,0.844,1.400,0.881,1.618,1.118,0.478,0.839,0.802,�k�k��,3.5,�L
2018/04/24,19:50,0.845,1.399,0.879,1.618,1.116,0.478,0.839,0.804,�k�k��,2.6,�L
2018/04/24,20:00,0.842,1.398,0.876,1.614,1.115,0.477,0.837,0.804,�k�k��,3.3,�L
2018/04/24,20:10,0.842,1.397,0.876,1.617,1.114,0.477,0.840,0.801,�k�k��,2.6,�L
2018/04/24,20:20,0.842,1.395,0.877,1.614,1.115,0.477,0.839,0.804,�k�k��,2.9,�L
2018/04/24,20:30,0.841,1.399,0.877,1.615,1.116,0.476,0.838,0.804,�k�k��,2.9,�L
2018/04/24,20:40,0.841,1.395,0.876,1.614,1.113,0.476,0.837,0.804,�k�k��,3.0,�L
2018/04/24,20:50,0.840,1.396,0.878,1.613,1.117,0.476,0.837,0.806,�k�k��,3.3,�L
2018/04/24,21:00,0.841,1.396,0.876,1.613,1.116,0.476,0.838,0.802,�k�k��,3.2,�L
2018/04/24,21:10,0.840,1.395,0.875,1.610,1.114,0.476,0.837,0.803,�k�k��,3.4,�L
2018/04/24,21:20,0.841,1.396,0.874,1.613,1.116,0.477,0.837,0.805,�k�k��,3.6,�L
2018/04/24,21:30,0.840,1.392,0.874,1.608,1.116,0.475,0.839,0.804,�k,2.6,�L
2018/04/24,21:40,0.840,1.395,0.873,1.613,1.116,0.476,0.838,0.804,�k�k��,4.1,�L
2018/04/24,21:50,0.838,1.395,0.873,1.609,1.116,0.476,0.839,0.803,�k�k��,4.4,�L
2018/04/24,22:00,0.840,1.393,0.873,1.608,1.117,0.476,0.839,0.803,�k�k��,2.8,�L
2018/04/24,22:10,0.839,1.394,0.875,1.611,1.115,0.476,0.838,0.804,�k�k��,4.1,�L
2018/04/24,22:20,0.837,1.392,0.874,1.610,1.112,0.476,0.839,0.803,�k�k��,4.7,�L
2018/04/24,22:30,0.839,1.393,0.873,1.611,1.114,0.476,0.838,0.805,�k�k��,3.6,�L
2018/04/24,22:40,0.839,1.394,0.873,1.610,1.113,0.477,0.838,0.804,�k�k��,4.6,�L
2018/04/24,22:50,0.837,1.391,0.873,1.608,1.113,0.476,0.837,0.805,�k�k��,4.7,�L
2018/04/24,23:00,0.839,1.390,0.872,1.607,1.110,0.474,0.840,0.804,�k�k��,5.1,�L
2018/04/24,23:10,0.839,1.389,0.871,1.607,1.112,0.476,0.836,0.804,�k�k��,5.1,�L
2018/04/24,23:20,0.840,1.388,0.874,1.605,1.109,0.475,0.837,0.803,�k�k��,3.7,�L
2018/04/24,23:30,0.837,1.389,0.872,1.605,1.111,0.476,0.837,0.804,�k�k��,3.6,�L
2018/04/24,23:40,0.836,1.387,0.871,1.606,1.111,0.476,0.836,0.803,�k�k��,5.0,�L
2018/04/24,23:50,0.835,1.385,0.869,1.604,1.107,0.478,0.836,0.803,�k�k��,4.6,�L
